N0MR Weather Reports


time (UTC)temp
F
wind
direction
speed
knots
gust
knots
rain 1hr
in
rain 24hr
in
rain mn
in
humidity
%
barometer
mb
20260902214650 79 342 1.7 7.0 0.00 0.06 0.06 46 1011.1
20260902212640 79 225 0.9 7.0 0.00 0.06 0.06 49 1011.2
20260902211641 79 98 0.9 4.3 0.00 0.06 0.06 47 1011.0
20260902210640 79 98 0.9 4.3 0.00 0.06 0.06 47 1011.0
20260902205641 79 193 0.0 6.1 0.00 0.06 0.06 50 1011.2
20260902204640 79 193 0.0 6.1 0.00 0.06 0.06 50 1011.2
20260902203644 78 86 0.9 7.0 0.00 0.06 0.06 50 1011.3
20260902202640 78 86 0.9 7.0 0.00 0.06 0.06 50 1011.3
20260902201640 78 86 0.0 5.2 0.00 0.06 0.06 51 1011.5
20260902200640 78 86 0.0 5.2 0.00 0.06 0.06 51 1011.5
20260902195640 78 217 0.9 7.0 0.00 0.06 0.06 51 1011.4
20260902194641 78 217 0.9 7.0 0.00 0.06 0.06 51 1011.4
20260902193641 77 220 3.5 6.1 0.00 0.06 0.06 51 1011.5
20260902192641 77 220 3.5 6.1 0.00 0.06 0.06 51 1011.5
20260902191641 78 220 0.9 7.0 0.00 0.06 0.06 50 1011.6
20260902190641 78 220 0.9 7.0 0.00 0.06 0.06 50 1011.6
20260902185641 78 39 0.9 6.1 0.00 0.06 0.06 51 1011.8
20260902184641 78 39 0.9 6.1 0.00 0.06 0.06 51 1011.8
20260902183641 77 213 0.0 7.8 0.06 0.06 0.06 54 1011.8
20260902182640 75 219 1.7 5.2 0.06 0.06 0.06 56 1012.0
20260902181640 75 219 1.7 5.2 0.06 0.06 0.06 56 1012.0
20260902180640 77 288 0.0 6.1 0.06 0.06 0.06 55 1011.8
20260902175640 77 288 0.0 6.1 0.06 0.06 0.06 55 1011.8
20260902174641 74 240 1.7 5.2 0.00 0.00 0.00 58 1012.1
20260902173641 74 240 1.7 5.2 0.00 0.00 0.00 58 1012.1
20260902172642 74 174 0.9 2.6 0.00 0.00 0.00 60 1012.1
20260902171642 74 174 0.9 2.6 0.00 0.00 0.00 60 1012.1
20260902170642 74 236 0.0 1.7 0.00 0.00 0.00 61 1012.2
20260902165641 74 236 0.0 1.7 0.00 0.00 0.00 61 1012.2
20260902164642 74 294 0.0 4.3 0.00 0.00 0.00 61 1012.3
20260902163641 74 294 0.0 4.3 0.00 0.00 0.00 61 1012.3
20260902162642 74 231 0.0 4.3 0.00 0.00 0.00 61 1012.1
20260902161642 74 231 0.0 4.3 0.00 0.00 0.00 61 1012.1
20260902160642 73 242 0.0 0.9 0.00 0.00 0.00 63 1012.0
20260902155643 73 242 0.0 0.9 0.00 0.00 0.00 63 1012.0
20260902154641 72 289 0.0 1.7 0.00 0.00 0.00 64 1012.1
20260902153642 72 289 0.0 1.7 0.00 0.00 0.00 64 1012.1
20260902152642 70 22 0.0 1.7 0.00 0.00 0.00 69 1012.2
20260902143642 64 38 0.0 0.0 0.00 0.01 0.00 82 1012.6
20260902142642 64 38 0.0 0.0 0.00 0.01 0.00 82 1012.6
20260902135645 61 240 0.0 0.9 0.00 0.01 0.00 88 1012.6
20260902134643 61 240 0.0 0.9 0.00 0.01 0.00 88 1012.6
20260902133644 60 240 0.0 0.9 0.00 0.01 0.00 94 1012.5
20260902132644 60 240 0.0 0.9 0.00 0.01 0.00 94 1012.5
20260902131644 58 240 0.0 0.0 0.00 0.01 0.00 96 1012.3
20260902130643 58 240 0.0 0.0 0.00 0.01 0.00 96 1012.3
20260902125644 56 240 0.0 0.0 0.00 0.01 0.00 96 1012.4
20260902124644 56 240 0.0 0.0 0.00 0.01 0.00 96 1012.4
20260902122644 55 240 0.0 0.0 0.00 0.01 0.00 95 1012.1
20260902121642 55 240 0.0 0.0 0.00 0.01 0.00 95 1012.0
20260902120643 55 240 0.0 0.0 0.00 0.01 0.00 94 1011.9
20260902115644 55 240 0.0 0.0 0.00 0.01 0.00 94 1011.9
20260902114643 55 239 0.0 0.0 0.00 0.01 0.00 94 1011.9
20260902113644 55 239 0.0 0.0 0.00 0.01 0.00 94 1011.9
20260902112645 55 240 0.0 0.0 0.00 0.01 0.00 94 1011.9
20260902111644 55 240 0.0 0.0 0.00 0.01 0.00 94 1011.9
20260902110643 56 240 0.0 0.0 0.00 0.01 0.00 94 1011.9
20260902105643 56 240 0.0 0.0 0.00 0.01 0.00 94 1011.9
20260902104643 56 240 0.0 0.0 0.00 0.01 0.00 94 1012.0
20260902103643 56 240 0.0 0.0 0.00 0.01 0.00 94 1012.0
20260902102644 56 240 0.0 0.0 0.00 0.01 0.00 93 1012.1
20260902101644 56 240 0.0 0.0 0.00 0.01 0.00 93 1012.1
20260902100643 56 240 0.0 0.0 0.00 0.01 0.00 93 1012.3
20260902095643 56 240 0.0 0.0 0.00 0.01 0.00 93 1012.3
20260902094643 57 239 0.0 0.0 0.00 0.01 0.00 92 1012.0
20260902093644 57 239 0.0 0.0 0.00 0.01 0.00 92 1012.0
20260902092643 57 240 0.0 0.0 0.00 0.01 0.00 91 1011.7
20260902091643 57 240 0.0 0.0 0.00 0.01 0.00 91 1011.7
20260902090645 58 239 0.0 0.0 0.00 0.01 0.00 91 1011.4
20260902073645 60 240 0.0 0.0 0.00 0.01 0.00 88 1011.5
20260902072645 60 240 0.0 0.0 0.00 0.01 0.00 88 1011.5
20260902071646 60 240 0.0 0.0 0.00 0.01 0.00 88 1011.6
20260902070646 60 240 0.0 0.0 0.00 0.01 0.00 88 1011.6
20260902065647 60 240 0.0 0.0 0.00 0.01 0.00 88 1011.6
20260902064645 60 240 0.0 0.0 0.00 0.01 0.00 88 1011.6
20260902063646 60 240 0.0 0.0 0.00 0.01 0.00 87 1011.5
20260902062645 60 240 0.0 0.0 0.00 0.01 0.00 87 1011.5
20260902061646 60 240 0.0 0.9 0.00 0.01 0.00 87 1011.5
20260902060649 60 240 0.0 0.9 0.00 0.01 0.00 87 1011.5
20260902055645 60 240 0.0 0.9 0.00 0.01 0.00 86 1011.6
20260902054645 60 239 0.0 1.7 0.00 0.01 0.00 86 1011.6
20260902053645 60 239 0.0 1.7 0.00 0.01 0.00 86 1011.6
20260902052645 60 240 0.0 0.9 0.00 0.01 0.00 86 1012.0
20260902051645 60 240 0.0 0.9 0.00 0.01 0.00 86 1012.0
20260902050646 60 240 0.0 1.7 0.00 0.01 0.01 86 1012.1
20260902045647 60 240 0.0 1.7 0.00 0.01 0.01 86 1012.1
20260902044646 60 240 0.0 1.7 0.00 0.01 0.01 85 1011.9
20260902043645 60 240 0.0 1.7 0.00 0.01 0.01 85 1011.9
20260902042647 61 240 0.0 0.9 0.00 0.01 0.01 84 1011.8
20260902041646 61 240 0.0 0.9 0.00 0.01 0.01 84 1011.8
20260902040646 61 240 0.0 1.7 0.00 0.01 0.01 83 1011.6
20260902035647 61 240 0.0 1.7 0.00 0.01 0.01 83 1011.6
20260902034645 61 240 0.0 0.0 0.00 0.01 0.01 83 1011.6
20260902033647 61 240 0.0 0.0 0.00 0.01 0.01 83 1011.6
20260902032646 62 240 0.0 1.7 0.00 0.01 0.01 82 1011.6
20260902031646 62 240 0.0 1.7 0.00 0.01 0.01 82 1011.6
20260902030649 63 240 0.0 0.9 0.00 0.01 0.01 80 1011.6
20260902025646 63 240 0.0 0.9 0.00 0.01 0.01 80 1011.6
20260902024647 63 240 0.0 1.7 0.00 0.01 0.01 79 1011.4
20260902023646 64 240 0.0 0.9 0.00 0.01 0.01 79 1011.4
20260902022646 64 240 0.0 0.9 0.00 0.01 0.01 79 1011.4
20260902021649 64 240 0.0 1.7 0.00 0.01 0.01 78 1011.2
20260902020646 64 240 0.0 1.7 0.00 0.01 0.01 78 1011.2
20260902015650 64 240 0.0 0.9 0.00 0.01 0.01 79 1011.1
20260902014646 64 240 0.0 0.9 0.00 0.01 0.01 79 1011.1
20260902013648 65 240 0.0 0.0 0.00 0.01 0.01 78 1010.9
20260902012647 65 240 0.0 0.0 0.00 0.01 0.01 78 1010.9
20260902005647 69 240 0.0 0.0 0.00 0.01 0.01 71 1010.6
20260902004646 69 240 0.0 0.0 0.00 0.01 0.01 71 1010.6
20260902003649 71 240 0.0 3.5 0.00 0.01 0.01 65 1010.4
20260902002646 71 240 0.0 3.5 0.00 0.01 0.01 65 1010.4
20260902001647 72 229 0.0 5.2 0.00 0.01 0.01 62 1010.5
20260902000648 72 229 0.0 5.2 0.00 0.01 0.01 62 1010.5
20260901235648 73 242 1.7 5.2 0.00 0.01 0.01 58 1010.4
20260901234647 73 242 1.7 5.2 0.00 0.01 0.01 58 1010.4
20260901233648 74 221 0.9 7.0 0.00 0.01 0.01 56 1010.4
20260901232646 75 5 0.9 6.1 0.00 0.01 0.01 55 1010.2
20260901224648 76 49 3.5 7.0 0.00 0.01 0.01 52 1010.2
20260901223649 76 49 3.5 7.0 0.00 0.01 0.01 52 1010.2
20260901222649 76 221 0.9 8.7 0.00 0.01 0.01 52 1010.1
20260901221648 76 221 0.9 8.7 0.00 0.01 0.01 52 1010.1
20260901220649 76 333 5.2 9.6 0.00 0.01 0.01 50 1010.0
20260901215649 76 333 5.2 9.6 0.00 0.01 0.01 50 1010.0